sat.trackr.live / text

‹ back to catalog

STARLINK-32674

NORAD 62434 · 2024-251C

PAYLOAD ACTIVE UNKNOWN

§ Identity

Operator
Country
US
Launch date
2024-12-29
Launch site
AFWTR
Launch vehicle
Mass (kg)
RCS (m²)

Purposes: comms

External: N2YO · Heavens-Above · Gunter

§ Orbital elements

Epoch: 2026-09-21T20:13:56.520192Z

Period
93.85 min
Inclination
53.1594°
Eccentricity
0.0001505
Mean motion
15.34399227 rev/d
Perigee alt
461.7 km
Apogee alt
463.7 km
Semi-major
6,840.8 km
B*
6.3330e-4
RAAN
141.1286°
Arg perigee
85.3436°
Mean anomaly
274.7738°
Rev number
9,802

§ Raw data

STARLINK-326741 62434U 24251C   26264.84301528  .00021080  00000+0  63330-3 0  99922 62434  53.1594 141.1286 0001505  85.3436 274.7738 15.34399227 98023

JSON: /api/v1/satellites/62434 · /tle

For live sub-satellite position, see the globe view (requires WebGL).

§ Visibility from observer

Set your observer location to see the next 7 days of passes ≥ 10°. The values pass through the URL so the page stays shareable.

No JS? Fill the form by hand. The geolocation button needs JavaScript.